| time (UTC) | temp F | wind direction | speed knots | gust knots | rain 1hr in | rain 24hr in | rain mn in | humidity % | barometer mb |
| 20260505034713 | 59 | 173 | 0.0 | 0.0 | 0.00 | 0.00 | 0.00 | 55 | 1003.3 |
| 20260505034206 | 59 | 173 | 0.0 | 0.0 | 0.00 | 0.00 | 0.00 | 54 | 1003.2 |
| 20260505033655 | 59 | 173 | 0.0 | 0.0 | 0.00 | 0.00 | 0.00 | 54 | 1003.2 |
| 20260505033144 | 59 | 173 | 0.0 | 0.0 | 0.00 | 0.00 | 0.00 | 55 | 1003.0 |
| 20260505032635 | 59 | 173 | 0.0 | 0.9 | 0.00 | 0.00 | 0.00 | 54 | 1003.0 |
| 20260505032116 | 60 | 173 | 0.0 | 2.6 | 0.00 | 0.00 | 0.00 | 54 | 1002.9 |
| 20260505031607 | 60 | 173 | 0.0 | 2.6 | 0.00 | 0.00 | 0.00 | 54 | 1002.8 |
| 20260505031102 | 60 | 173 | 0.0 | 2.6 | 0.00 | 0.00 | 0.00 | 53 | 1002.7 |
| 20260505030558 | 60 | 173 | 0.0 | 2.6 | 0.00 | 0.00 | 0.00 | 54 | 1002.7 |
| 20260505030109 | 61 | 173 | 0.0 | 0.9 | 0.00 | 0.00 | 0.00 | 55 | 1002.7 |
| 20260505025554 | 61 | 173 | 0.0 | 4.3 | 0.00 | 0.00 | 0.00 | 53 | 1002.6 |
| 20260505025040 | 62 | 173 | 0.0 | 4.3 | 0.00 | 0.00 | 0.00 | 53 | 1002.7 |
| 20260505024507 | 62 | 173 | 0.0 | 0.0 | 0.00 | 0.00 | 0.00 | 53 | 1002.7 |
| 20260505024007 | 62 | 173 | 0.0 | 0.0 | 0.00 | 0.00 | 0.00 | 54 | 1002.7 |
| 20260505023508 | 62 | 173 | 0.0 | 0.0 | 0.00 | 0.00 | 0.00 | 53 | 1002.6 |
| 20260505022951 | 63 | 173 | 0.0 | 0.0 | 0.00 | 0.00 | 0.00 | 52 | 1002.6 |
| 20260505022412 | 63 | 173 | 0.0 | 0.0 | 0.00 | 0.00 | 0.00 | 53 | 1002.5 |
| 20260505021912 | 64 | 173 | 0.0 | 0.0 | 0.00 | 0.00 | 0.00 | 52 | 1002.3 |
| 20260505021407 | 64 | 173 | 0.0 | 0.0 | 0.00 | 0.00 | 0.00 | 53 | 1002.2 |
| 20260505020907 | 64 | 173 | 0.0 | 0.0 | 0.00 | 0.00 | 0.00 | 51 | 1002.2 |
| 20260505020407 | 65 | 173 | 0.0 | 0.0 | 0.00 | 0.00 | 0.00 | 50 | 1002.1 |
| 20260505015849 | 65 | 173 | 0.0 | 0.0 | 0.00 | 0.00 | 0.00 | 52 | 1002.1 |
| 20260505014806 | 67 | 173 | 0.0 | 0.0 | 0.00 | 0.00 | 0.00 | 47 | 1002.1 |
| 20260505014308 | 69 | 173 | 0.0 | 2.6 | 0.00 | 0.00 | 0.00 | 43 | 1002.0 |
| 20260505013803 | 69 | 173 | 0.9 | 3.5 | 0.00 | 0.00 | 0.00 | 40 | 1002.0 |
| 20260505013217 | 69 | 173 | 1.7 | 5.2 | 0.00 | 0.00 | 0.00 | 42 | 1001.9 |
| 20260505012716 | 69 | 173 | 0.9 | 4.3 | 0.00 | 0.00 | 0.00 | 45 | 1002.0 |
| 20260505011139 | 71 | 173 | 1.7 | 5.2 | 0.00 | 0.00 | 0.00 | 37 | 1002.1 |
| 20260505010638 | 71 | 170 | 1.7 | 5.2 | 0.00 | 0.00 | 0.00 | 39 | 1002.1 |
| 20260505010138 | 71 | 170 | 0.9 | 4.3 | 0.00 | 0.00 | 0.00 | 41 | 1002.2 |
| 20260505005127 | 71 | 169 | 1.7 | 6.1 | 0.00 | 0.00 | 0.00 | 40 | 1002.2 |
| 20260505004626 | 71 | 169 | 3.5 | 7.8 | 0.00 | 0.00 | 0.00 | 41 | 1002.2 |
| 20260505004122 | 72 | 146 | 2.6 | 7.8 | 0.00 | 0.00 | 0.00 | 39 | 1002.2 |
| 20260505003620 | 72 | 185 | 1.7 | 6.1 | 0.00 | 0.00 | 0.00 | 39 | 1002.2 |
| 20260505003116 | 72 | 190 | 1.7 | 6.1 | 0.00 | 0.00 | 0.00 | 39 | 1002.1 |
| 20260505002618 | 72 | 176 | 2.6 | 7.0 | 0.00 | 0.00 | 0.00 | 39 | 1002.1 |
| 20260505002113 | 72 | 184 | 3.5 | 7.8 | 0.00 | 0.00 | 0.00 | 40 | 1002.3 |
| 20260505001110 | 72 | 194 | 2.6 | 6.1 | 0.00 | 0.00 | 0.00 | 40 | 1002.2 |
| 20260505000602 | 72 | 214 | 2.6 | 9.6 | 0.00 | 0.00 | 0.00 | 40 | 1002.3 |
| 20260505000103 | 72 | 193 | 2.6 | 9.6 | 0.00 | 0.00 | 0.00 | 38 | 1002.4 |
| 20260504235545 | 72 | 180 | 3.5 | 7.8 | 0.00 | 0.00 | 0.00 | 41 | 1002.4 |
| 20260504235039 | 73 | 188 | 3.5 | 7.8 | 0.00 | 0.00 | 0.00 | 40 | 1002.4 |
| 20260504234527 | 73 | 219 | 3.5 | 6.1 | 0.00 | 0.00 | 0.00 | 41 | 1002.4 |
| 20260504234026 | 73 | 206 | 3.5 | 6.1 | 0.00 | 0.00 | 0.00 | 39 | 1002.5 |
| 20260504233520 | 73 | 171 | 2.6 | 9.6 | 0.00 | 0.00 | 0.00 | 39 | 1002.4 |
| 20260504233020 | 73 | 197 | 2.6 | 9.6 | 0.00 | 0.00 | 0.00 | 38 | 1002.4 |
| 20260504232520 | 73 | 196 | 3.5 | 8.7 | 0.00 | 0.00 | 0.00 | 37 | 1002.4 |
| 20260504232021 | 73 | 201 | 3.5 | 10.4 | 0.00 | 0.00 | 0.00 | 39 | 1002.4 |
| 20260504231518 | 73 | 186 | 2.6 | 10.4 | 0.00 | 0.00 | 0.00 | 36 | 1002.4 |
| 20260504230516 | 73 | 164 | 2.6 | 7.0 | 0.00 | 0.00 | 0.00 | 39 | 1002.5 |
| 20260504230016 | 73 | 167 | 2.6 | 9.6 | 0.00 | 0.00 | 0.00 | 39 | 1002.3 |
| 20260504225504 | 73 | 178 | 2.6 | 9.6 | 0.00 | 0.00 | 0.00 | 41 | 1002.4 |
| 20260504225004 | 73 | 200 | 0.9 | 4.3 | 0.00 | 0.00 | 0.00 | 40 | 1002.4 |
| 20260504223507 | 73 | 276 | 0.9 | 5.2 | 0.00 | 0.00 | 0.00 | 40 | 1002.5 |
| 20260504223002 | 73 | 198 | 1.7 | 6.1 | 0.00 | 0.00 | 0.00 | 40 | 1002.7 |
| 20260504222002 | 72 | 169 | 1.7 | 6.1 | 0.00 | 0.00 | 0.00 | 40 | 1002.8 |
| 20260504221502 | 72 | 266 | 0.9 | 6.1 | 0.00 | 0.00 | 0.00 | 39 | 1002.9 |
| 20260504220959 | 72 | 261 | 0.9 | 6.1 | 0.00 | 0.00 | 0.00 | 40 | 1002.9 |
| 20260504220458 | 72 | 248 | 1.7 | 6.1 | 0.00 | 0.00 | 0.00 | 38 | 1003.0 |
| 20260504215959 | 72 | 205 | 1.7 | 6.1 | 0.00 | 0.00 | 0.00 | 38 | 1003.1 |
| 20260504215458 | 72 | 194 | 0.9 | 7.8 | 0.00 | 0.00 | 0.00 | 39 | 1003.0 |
| 20260504214957 | 72 | 275 | 0.9 | 8.7 | 0.00 | 0.00 | 0.00 | 41 | 1003.0 |
| 20260504214457 | 72 | 250 | 1.7 | 8.7 | 0.00 | 0.00 | 0.00 | 40 | 1003.0 |
| 20260504213956 | 72 | 285 | 2.6 | 8.7 | 0.00 | 0.00 | 0.00 | 40 | 1003.0 |
| 20260504213456 | 72 | 244 | 1.7 | 8.7 | 0.00 | 0.00 | 0.00 | 41 | 1002.9 |
| 20260504211937 | 72 | 314 | 1.7 | 7.8 | 0.00 | 0.00 | 0.00 | 40 | 1003.0 |
| 20260504211431 | 72 | 290 | 1.7 | 5.2 | 0.00 | 0.00 | 0.00 | 40 | 1003.0 |
| 20260504210931 | 71 | 189 | 2.6 | 7.0 | 0.00 | 0.00 | 0.00 | 42 | 1003.0 |
| 20260504210430 | 71 | 193 | 1.7 | 7.0 | 0.00 | 0.00 | 0.00 | 42 | 1003.1 |
| 20260504205930 | 72 | 210 | 0.9 | 7.0 | 0.00 | 0.00 | 0.00 | 44 | 1003.0 |
| 20260504205429 | 71 | 207 | 0.9 | 7.0 | 0.00 | 0.00 | 0.00 | 46 | 1003.1 |
| 20260504204406 | 71 | 266 | 0.9 | 4.3 | 0.00 | 0.00 | 0.00 | 47 | 1003.3 |
| 20260504203908 | 71 | 212 | 1.7 | 5.2 | 0.00 | 0.00 | 0.00 | 49 | 1003.4 |
| 20260504203402 | 71 | 252 | 1.7 | 6.1 | 0.00 | 0.00 | 0.00 | 48 | 1003.3 |
| 20260504202337 | 70 | 226 | 1.7 | 5.2 | 0.00 | 0.00 | 0.00 | 47 | 1003.6 |
| 20260504201325 | 71 | 212 | 1.7 | 5.2 | 0.00 | 0.00 | 0.00 | 45 | 1003.6 |
| 20260504200316 | 71 | 244 | 0.9 | 5.2 | 0.00 | 0.00 | 0.00 | 44 | 1003.5 |
| 20260504195815 | 71 | 244 | 0.9 | 5.2 | 0.00 | 0.00 | 0.00 | 43 | 1003.4 |
| 20260504195313 | 70 | 292 | 0.9 | 3.5 | 0.00 | 0.00 | 0.00 | 45 | 1003.4 |
| 20260504194315 | 70 | 17 | 0.9 | 5.2 | 0.00 | 0.00 | 0.00 | 44 | 1003.5 |
| 20260504193801 | 69 | 349 | 1.7 | 5.2 | 0.00 | 0.00 | 0.00 | 45 | 1003.5 |
| 20260504192742 | 70 | 210 | 0.9 | 5.2 | 0.00 | 0.00 | 0.00 | 46 | 1003.5 |
| 20260504192242 | 70 | 200 | 1.7 | 6.1 | 0.00 | 0.00 | 0.00 | 47 | 1003.6 |
| 20260504191742 | 69 | 253 | 1.7 | 6.1 | 0.00 | 0.00 | 0.00 | 45 | 1003.7 |
| 20260504191238 | 69 | 261 | 0.9 | 5.2 | 0.00 | 0.00 | 0.00 | 46 | 1003.8 |
| 20260504190738 | 69 | 273 | 0.9 | 5.2 | 0.00 | 0.00 | 0.00 | 48 | 1003.9 |
| 20260504190238 | 69 | 272 | 0.9 | 5.2 | 0.00 | 0.00 | 0.00 | 45 | 1003.8 |
| 20260504185723 | 68 | 232 | 0.9 | 5.2 | 0.00 | 0.00 | 0.00 | 48 | 1003.8 |
| 20260504185204 | 68 | 213 | 1.7 | 5.2 | 0.00 | 0.00 | 0.00 | 48 | 1003.6 |
| 20260504184659 | 68 | 186 | 2.6 | 7.0 | 0.00 | 0.00 | 0.00 | 49 | 1003.6 |
| 20260504183658 | 68 | 188 | 0.9 | 5.2 | 0.00 | 0.00 | 0.00 | 47 | 1003.5 |
| 20260504183151 | 68 | 185 | 0.9 | 3.5 | 0.00 | 0.00 | 0.00 | 50 | 1003.7 |
| 20260504182632 | 67 | 184 | 1.7 | 6.1 | 0.00 | 0.00 | 0.00 | 48 | 1003.7 |
| 20260504182125 | 67 | 184 | 0.9 | 6.1 | 0.00 | 0.00 | 0.00 | 50 | 1003.7 |
| 20260504181610 | 66 | 199 | 1.7 | 5.2 | 0.00 | 0.00 | 0.00 | 53 | 1003.7 |
| 20260504181108 | 66 | 197 | 1.7 | 7.8 | 0.00 | 0.00 | 0.00 | 51 | 1003.7 |
| 20260504180600 | 65 | 197 | 2.6 | 7.8 | 0.00 | 0.00 | 0.00 | 52 | 1003.7 |
| 20260504180100 | 65 | 208 | 2.6 | 6.1 | 0.00 | 0.00 | 0.00 | 49 | 1003.6 |
| 20260504175559 | 65 | 209 | 2.6 | 6.1 | 0.00 | 0.00 | 0.00 | 52 | 1003.8 |
| 20260504175058 | 65 | 211 | 2.6 | 6.1 | 0.00 | 0.00 | 0.00 | 52 | 1003.9 |
| 20260504174551 | 65 | 207 | 2.6 | 6.1 | 0.00 | 0.00 | 0.00 | 54 | 1003.8 |
| 20260504174043 | 64 | 190 | 1.7 | 5.2 | 0.00 | 0.00 | 0.00 | 55 | 1004.0 |
| 20260504173534 | 64 | 182 | 1.7 | 5.2 | 0.00 | 0.00 | 0.00 | 55 | 1003.9 |
| 20260504173029 | 63 | 181 | 1.7 | 6.1 | 0.00 | 0.00 | 0.00 | 52 | 1003.9 |
| 20260504172520 | 63 | 181 | 2.6 | 6.1 | 0.00 | 0.00 | 0.00 | 55 | 1003.9 |
| 20260504172009 | 63 | 173 | 2.6 | 6.1 | 0.00 | 0.00 | 0.00 | 53 | 1003.9 |
| 20260504171002 | 62 | 169 | 2.6 | 6.1 | 0.00 | 0.00 | 0.00 | 53 | 1003.7 |
| 20260504170442 | 62 | 178 | 1.7 | 6.1 | 0.00 | 0.00 | 0.00 | 54 | 1003.8 |
| 20260504150806 | 58 | 143 | 0.0 | 2.6 | 0.00 | 0.00 | 0.00 | 55 | 1003.6 |
| 20260504150305 | 58 | 143 | 0.9 | 4.3 | 0.00 | 0.00 | 0.00 | 54 | 1003.7 |
| 20260504140115 | 55 | 167 | 0.0 | 0.0 | 0.00 | 0.00 | 0.00 | 59 | 1003.5 |
| 20260504130434 | 55 | 222 | 0.0 | 0.0 | 0.00 | 0.00 | 0.00 | 54 | 1003.3 |
| 20260504120207 | 58 | 254 | 0.0 | 0.0 | 0.00 | 0.00 | 0.00 | 48 | 1003.5 |
| 20260504110508 | 57 | 254 | 0.0 | 0.0 | 0.00 | 0.00 | 0.00 | 47 | 1003.8 |
| 20260504090137 | 60 | 254 | 0.0 | 0.0 | 0.00 | 0.00 | 0.00 | 40 | 1003.8 |
| 20260504081511 | 61 | 254 | 0.0 | 0.0 | 0.00 | 0.00 | 0.00 | 39 | 1004.1 |
| 20260504081011 | 61 | 254 | 0.0 | 0.0 | 0.00 | 0.00 | 0.00 | 39 | 1004.2 |
| 20260504080431 | 61 | 254 | 0.0 | 0.0 | 0.00 | 0.00 | 0.00 | 40 | 1004.2 |
| 20260504070208 | 61 | 254 | 0.0 | 0.0 | 0.00 | 0.00 | 0.00 | 41 | 1004.5 |
| 20260504050350 | 62 | 254 | 0.0 | 0.0 | 0.00 | 0.00 | 0.00 | 38 | 1004.9 |
| 20260504045824 | 62 | 254 | 0.0 | 0.0 | 0.00 | 0.00 | 0.00 | 39 | 1004.8 |
| 20260504045323 | 62 | 254 | 0.0 | 0.0 | 0.00 | 0.00 | 0.00 | 38 | 1004.9 |
| 20260504044819 | 62 | 254 | 0.0 | 0.0 | 0.00 | 0.00 | 0.00 | 39 | 1004.9 |
| 20260504044312 | 62 | 254 | 0.0 | 0.0 | 0.00 | 0.00 | 0.00 | 39 | 1004.9 |
| 20260504043809 | 62 | 254 | 0.0 | 0.0 | 0.00 | 0.00 | 0.00 | 39 | 1005.0 |
| 20260504043310 | 62 | 254 | 0.0 | 0.0 | 0.00 | 0.00 | 0.00 | 38 | 1004.8 |
| 20260504042257 | 62 | 254 | 0.0 | 0.0 | 0.00 | 0.00 | 0.00 | 38 | 1004.9 |
| 20260504041756 | 62 | 254 | 0.0 | 0.0 | 0.00 | 0.00 | 0.00 | 38 | 1004.9 |
| 20260504041241 | 62 | 254 | 0.0 | 0.0 | 0.00 | 0.00 | 0.00 | 39 | 1004.9 |
| 20260504040731 | 62 | 254 | 0.0 | 0.0 | 0.00 | 0.00 | 0.00 | 38 | 1004.8 |
| 20260504040232 | 62 | 254 | 0.0 | 0.0 | 0.00 | 0.00 | 0.00 | 38 | 1004.9 |